Latest Weather Observations for Jimna

IDQ60801

Issued at 6:05 pm EST Monday 1 September 2014 (issued every 30 minutes, with the page automatically refreshed every 10 minutes)

About weather observations | Map of weather stations | Latest weather observations for QLD | Other Formats
Station Details ID: 040651 Name: JIMNA FORESTRY Lat: -26.66 Lon: 152.46 Height: 523.0 m
Data from the previous 72 hours. | See also: Recent months at Jimna
Date/Time
EST
Temp
°C
App
Temp
°C
Dew
Point
Rel
Hum
%
Delta-T
°C
Wind Press
QNH
hPa
Press
MSL
hPa
Rain
since 9 am
mm
Dir
 
Spd
km/h
Gust
km/h
Spd
kts
Gust
kts
01/06:00pm 15.6 - 3.1 43 5.8 - - - - - - - 0.0
01/05:30pm 16.9 - 4.3 43 6.1 - - - - - - - 0.0
01/05:00pm 18.5 - 2.4 34 7.6 - - - - - - - 0.0
01/04:30pm 20.8 - 3.5 32 8.5 - - - - - - - 0.0
01/04:00pm 21.0 - 4.6 34 8.2 - - - - - - - 0.0
01/03:30pm 22.2 - 2.3 27 9.6 - - - - - - - 0.0
01/03:00pm 22.1 - 2.2 27 9.6 - - - - - - - 0.0
01/02:30pm 22.0 - 2.2 27 9.5 - - - - - - - 0.0
01/02:00pm 22.0 - 2.2 27 9.5 - - - - - - - 0.0
01/01:30pm 21.9 - 1.5 26 9.7 - - - - - - - 0.0
01/01:00pm 22.0 - 3.2 29 9.2 - - - - - - - 0.0
01/12:30pm 21.3 - 2.1 28 9.2 - - - - - - - 0.0
01/12:00pm 20.6 - 2.9 31 8.6 - - - - - - - 0.0
01/11:30am 20.3 - 0.2 26 9.2 - - - - - - - 0.0
01/11:00am 20.6 - 5.8 38 7.6 - - - - - - - 0.0
01/10:30am 20.3 - 7.0 42 6.9 - - - - - - - 0.0
01/10:00am 19.3 - 7.4 46 6.2 - - - - - - - 0.0
01/09:30am 18.5 - 7.3 48 5.8 - - - - - - - 0.0
01/09:00am 17.8 - 10.4 62 4.1 - - - - - - - 0.0
01/08:30am 16.3 - 10.6 69 3.1 - - - - - - - 0.0
01/08:00am 14.1 - 12.1 88 1.1 - - - - - - - 0.0
01/07:30am 11.5 - 10.2 92 0.7 - - - - - - - 0.0
01/07:00am 9.2 - 8.3 94 0.4 - - - - - - - 0.0
01/06:30am 8.4 - 7.2 92 0.6 - - - - - - - 0.0
01/06:00am 8.5 - 7.1 91 0.7 - - - - - - - 0.0
01/05:30am 9.3 - 8.1 92 0.6 - - - - - - - 0.0
01/05:00am 9.6 - 8.0 90 0.8 - - - - - - - 0.0
01/04:30am 10.2 - 8.8 91 0.7 - - - - - - - 0.0
01/04:00am 10.9 - 9.3 90 0.8 - - - - - - - 0.0
01/03:30am 11.5 - 10.2 92 0.7 - - - - - - - 0.0
01/03:00am 11.8 - 10.2 90 0.8 - - - - - - - 0.0
01/02:30am 12.2 - 10.8 91 0.7 - - - - - - - 0.0
01/02:00am 12.5 - 11.1 91 0.8 - - - - - - - 0.0
01/01:30am 12.6 - 11.2 91 0.8 - - - - - - - 0.0
01/01:00am 12.7 - 11.3 91 0.8 - - - - - - - 0.0
01/12:30am 13.1 - 11.5 90 0.9 - - - - - - - 0.0
01/12:00am 13.6 - 12.0 90 0.9 - - - - - - - 0.0
 
Date/Time
EST
Temp
°C
App
Temp
°C
Dew
Point
Rel
Hum
%
Delta-T
°C
Wind Press
QNH
hPa
Press
MSL
hPa
Rain
since 9 am
mm
Dir
 
Spd
km/h
Gust
km/h
Spd
kts
Gust
kts
31/11:30pm 13.7 - 11.9 89 1.0 - - - - - - - 0.0
31/11:00pm 13.8 - 12.0 89 1.0 - - - - - - - 0.0
31/10:30pm 13.8 - 12.0 89 1.0 - - - - - - - 0.0
31/10:00pm 13.7 - 11.6 87 1.2 - - - - - - - 0.0
31/09:30pm 13.6 - 11.3 86 1.3 - - - - - - - 0.0
31/09:00pm 13.6 - 11.3 86 1.3 - - - - - - - 0.0
31/08:30pm 13.6 - 11.1 85 1.4 - - - - - - - 0.0
31/08:00pm 13.9 - 11.1 83 1.5 - - - - - - - 0.0
31/07:30pm 14.5 - 11.1 80 1.9 - - - - - - - 0.0
31/07:00pm 15.1 - 11.1 77 2.2 - - - - - - - 0.0
31/06:30pm 15.6 - 11.2 75 2.4 - - - - - - - 0.0
31/06:00pm 16.4 - 11.1 71 2.9 - - - - - - - 0.0
31/05:30pm 17.2 - 10.6 65 3.6 - - - - - - - 0.0
31/05:00pm 16.8 - 5.4 47 5.6 - - - - - - - 0.0
31/04:30pm 19.1 - 5.9 42 6.7 - - - - - - - 0.0
31/04:00pm 21.3 - 3.0 30 8.9 - - - - - - - 0.0
31/03:30pm 21.4 - 5.7 36 8.0 - - - - - - - 0.0
31/03:00pm 21.5 - 5.0 34 8.4 - - - - - - - 0.0
31/02:30pm 21.6 - 4.7 33 8.5 - - - - - - - 0.0
31/02:00pm 20.9 - 5.7 37 7.8 - - - - - - - 0.0
31/01:30pm 20.5 - 5.3 37 7.7 - - - - - - - 0.0
31/01:00pm 21.3 - 6.8 39 7.6 - - - - - - - 0.0
31/12:30pm 21.1 - 7.0 40 7.4 - - - - - - - 0.0
31/12:00pm 20.7 - 7.0 41 7.2 - - - - - - - 0.0
31/11:30am 20.2 - 7.2 43 6.8 - - - - - - - 0.0
31/11:00am 19.1 - 7.8 48 5.9 - - - - - - - 0.0
31/10:30am 18.8 - 8.2 50 5.6 - - - - - - - 0.0
31/10:00am 18.0 - 8.0 52 5.2 - - - - - - - 0.0
31/09:30am 17.5 - 9.7 60 4.2 - - - - - - - 0.0
31/09:00am 15.9 - 8.2 60 4.0 - - - - - - - 0.0
31/08:30am 15.0 - 9.1 68 3.1 - - - - - - - 0.0
31/08:00am 12.3 - 10.0 86 1.2 - - - - - - - 0.0
31/07:30am 9.7 - 8.1 90 0.8 - - - - - - - 0.0
31/07:00am 7.3 - 6.2 93 0.5 - - - - - - - 0.0
31/06:30am 6.5 - 5.3 92 0.5 - - - - - - - 0.0
31/06:00am 6.9 - 5.7 92 0.6 - - - - - - - 0.0
31/05:30am 6.9 - 5.5 91 0.6 - - - - - - - 0.0
31/05:00am 7.4 - 6.0 91 0.7 - - - - - - - 0.0
31/04:30am 8.1 - 6.7 91 0.7 - - - - - - - 0.0
31/04:00am 8.4 - 6.9 90 0.7 - - - - - - - 0.0
31/03:30am 8.8 - 6.9 88 0.9 - - - - - - - 0.0
31/03:00am 9.5 - 7.6 88 0.9 - - - - - - - 0.0
31/02:30am 10.0 - 8.1 88 0.9 - - - - - - - 0.0
31/02:00am 10.0 - 8.1 88 0.9 - - - - - - - 0.0
31/01:30am 10.0 - 8.1 88 0.9 - - - - - - - 0.0
31/01:00am 9.8 - 7.9 88 0.9 - - - - - - - 0.0
31/12:30am 9.6 - 7.9 89 0.8 - - - - - - - 0.0
31/12:00am 9.1 - 7.2 88 0.9 - - - - - - - 0.0
 
Date/Time
EST
Temp
°C
App
Temp
°C
Dew
Point
Rel
Hum
%
Delta-T
°C
Wind Press
QNH
hPa
Press
MSL
hPa
Rain
since 9 am
mm
Dir
 
Spd
km/h
Gust
km/h
Spd
kts
Gust
kts
30/11:30pm 8.9 - 7.4 90 0.7 - - - - - - - 0.0
30/11:00pm 8.5 - 7.0 90 0.7 - - - - - - - 0.0
30/10:30pm 8.1 - 6.4 89 0.8 - - - - - - - 0.0
30/10:00pm 8.3 - 6.3 87 0.9 - - - - - - - 0.0
30/09:30pm 8.9 - 6.7 86 1.1 - - - - - - - 0.0
30/09:00pm 8.9 - 6.5 85 1.1 - - - - - - - 0.0
30/08:30pm 9.2 - 6.3 82 1.4 - - - - - - - 0.0
30/08:00pm 9.9 - 6.6 80 1.6 - - - - - - - 0.0
30/07:30pm 10.6 - 6.6 76 1.9 - - - - - - - 0.0
30/07:00pm 11.2 - 6.3 72 2.4 - - - - - - - 0.0
30/06:30pm 12.6 - 6.9 68 2.8 - - - - - - - 0.0
30/06:00pm 13.6 - 7.2 65 3.2 - - - - - - - 0.0
30/05:30pm 14.5 - 6.3 58 4.1 - - - - - - - 0.0
30/05:00pm 15.4 - 5.3 51 4.9 - - - - - - - 0.0
30/04:30pm 17.3 - 5.6 46 5.8 - - - - - - - 0.0
30/04:00pm 19.4 - 5.1 39 7.2 - - - - - - - 0.0
30/03:30pm 19.9 - 4.4 36 7.7 - - - - - - - 0.0
30/03:00pm 19.5 - 1.9 31 8.3 - - - - - - - 0.0
30/02:30pm 19.6 - 2.5 32 8.1 - - - - - - - 0.0
30/02:00pm 19.9 - 0.9 28 8.8 - - - - - - - 0.0
30/01:30pm 19.3 - 0.8 29 8.5 - - - - - - - 0.0
30/01:00pm 18.1 - 2.4 35 7.4 - - - - - - - 0.0
30/12:30pm 17.7 - 3.2 38 6.9 - - - - - - - 0.0
30/12:00pm 17.8 - 4.7 42 6.4 - - - - - - - 0.0
30/11:30am 17.3 - 2.1 36 7.1 - - - - - - - 0.0
30/11:00am 16.6 - 3.3 41 6.3 - - - - - - - 0.0
30/10:30am 15.3 - 4.4 48 5.2 - - - - - - - 0.0
30/10:00am 14.7 - 4.7 51 4.8 - - - - - - - 0.0
30/09:30am 13.3 - 3.9 53 4.4 - - - - - - - 0.0
30/09:00am 12.2 - 4.7 60 3.5 - - - - - - - 0.0
30/08:30am 10.8 - 6.2 73 2.2 - - - - - - - 0.0
30/08:00am 8.4 - 7.2 92 0.6 - - - - - - - 0.0
30/07:30am 5.5 - 5.1 97 0.2 - - - - - - - 0.0
30/07:00am 2.7 - 2.0 95 0.3 - - - - - - - 0.0
30/06:30am 2.0 - 1.1 94 0.4 - - - - - - - 0.0
30/06:00am 1.9 - 1.0 94 0.4 - - - - - - - 0.0
30/05:30am 2.1 - 1.2 94 0.4 - - - - - - - 0.0
30/05:00am 2.5 - 1.6 94 0.4 - - - - - - - 0.0
30/04:30am 2.8 - 1.8 93 0.4 - - - - - - - 0.0
30/04:00am 3.1 - 2.1 93 0.4 - - - - - - - 0.0
30/03:30am 3.3 - 2.3 93 0.4 - - - - - - - 0.0
30/03:00am 3.6 - 2.6 93 0.4 - - - - - - - 0.0
30/02:30am 4.2 - 3.2 93 0.4 - - - - - - - 0.0
30/02:00am 4.2 - 3.0 92 0.5 - - - - - - - 0.0
30/01:30am 4.8 - 3.8 93 0.4 - - - - - - - 0.0
30/01:00am 5.1 - 3.9 92 0.5 - - - - - - - 0.0
30/12:30am 5.5 - 4.5 93 0.4 - - - - - - - 0.0
30/12:00am 5.7 - 4.5 92 0.5 - - - - - - - 0.0
 
Date/Time
EST
Temp
°C
App
Temp
°C
Dew
Point
Rel
Hum
%
Delta-T
°C
Wind Press
QNH
hPa
Press
MSL
hPa
Rain
since 9 am
mm
Dir
 
Spd
km/h
Gust
km/h
Spd
kts
Gust
kts
29/11:30pm 6.2 - 5.2 93 0.5 - - - - - - - 0.0
29/11:00pm 6.1 - 4.6 90 0.7 - - - - - - - 0.0
29/10:30pm 6.7 - 5.3 91 0.6 - - - - - - - 0.0
29/10:00pm 7.0 - 5.5 90 0.7 - - - - - - - 0.0
29/09:30pm 7.8 - 6.4 91 0.7 - - - - - - - 0.0
29/09:00pm 7.7 - 6.0 89 0.8 - - - - - - - 0.0
29/08:30pm 8.2 - 6.3 88 0.9 - - - - - - - 0.0
29/08:00pm 8.6 - 6.1 84 1.2 - - - - - - - 0.0
29/07:30pm 9.4 - 6.5 82 1.4 - - - - - - - 0.0
29/07:00pm 10.2 - 6.5 78 1.8 - - - - - - - 0.0
29/06:30pm 11.3 - 6.4 72 2.4 - - - - - - - 0.0

Other Formats:

Comma delimited format used in spreadsheet applications
http://www.bom.gov.au/fwo/IDQ60801/IDQ60801.94557.axf

JavaScript Object Notation format (JSON) in row-major order
http://www.bom.gov.au/fwo/IDQ60801/IDQ60801.94557.json